Shelton, WA

10:54 AM PDT on August 17, 2017 (GMT -0700)
Sanderson

Weather History for KSHN - July, 2013

Change the Weather History Date:

Monday, July 8, 2013

  Actual Average Record
Temperature  
Mean Temperature 64 °F -  
Max Temperature 73 °F 75 °F 96 °F (1952)
Min Temperature 54 °F 53 °F 41 °F (1949)
Degree Days  
Heating Degree Days 2    
Growing Degree Days 14 (Base 50)    
Moisture  
Dew Point 55 °F    
Average Humidity 82    
Maximum Humidity 97    
Minimum Humidity 59    
Precipitation  
Precipitation 0.00 in - - ()
Sea Level Pressure  
Sea Level Pressure 30.05 in    
Wind  
Wind Speed 9 mph (SW)    
Max Wind Speed 15 mph    
Max Gust Speed -    
Visibility 10 miles    
Events      
Averages and records for this station are not official NWS values.
T = Trace of Precipitation, MM = Missing Value Source: NWS Daily Summary

Daily Weather History Graph

Daily Weather History Graph

Search for Another Location

Airport or City:

Trip Planner

Search our weather history database for the weather conditions in past years. The results will help you decide how hot, cold, wet, or windy it might be!

Date:

Astronomy

Jul. 08, 2013 Rise Set
Actual Time 5:25 AM PDT 9:09 PM PDT
Civil Twilight 4:46 AM PDT 9:48 PM PDT
Nautical Twilight 3:53 AM PDT 10:41 PM PDT
Astronomical Twilight 2:38 AM PDT 11:55 PM PDT
Moon 6:06 AM PDT (7/8) 9:06 PM PDT (7/8)
Length of Visible Light 17h 01m
Length of Day
15h 43m
New Moon, 0% of the Moon is Illuminated
Jul 8
New Moon
Jul 15
First Quarter
Jul 22
Full
Jul 29
Last Quarter
Aug 6
New

Hourly Weather History & Observations

Time (PDT) Temp. Dew Point Humidity Pressure Visibility Wind Dir Wind Speed Gust Speed Precip Events Conditions
12:35 AM 55.4 °F 51.8 °F 88% 29.97 in 10.0 mi SW 15.0 mph - N/A   Overcast
12:53 AM 55.0 °F 52.0 °F 89% 29.98 in 10.0 mi WSW 11.5 mph - N/A   Overcast
1:53 AM 54.0 °F 52.0 °F 93% 29.98 in 10.0 mi WSW 12.7 mph - N/A   Overcast
2:53 AM 54.0 °F 52.0 °F 93% 29.99 in 9.0 mi WSW 10.4 mph - N/A   Overcast
3:53 AM 54.0 °F 53.1 °F 97% 30.00 in 9.0 mi SW 6.9 mph - N/A   Overcast
4:53 AM 54.0 °F 52.0 °F 93% 30.01 in 10.0 mi SW 6.9 mph - N/A   Overcast
5:53 AM 54.0 °F 52.0 °F 93% 30.03 in 10.0 mi SW 6.9 mph - N/A   Overcast
6:53 AM 54.0 °F 53.1 °F 97% 30.04 in 6.0 mi SW 5.8 mph - N/A   Overcast
7:53 AM 55.0 °F 53.1 °F 93% 30.06 in 8.0 mi SW 6.9 mph - N/A   Overcast
8:36 AM 55.4 °F 53.6 °F 94% 30.07 in 10.0 mi SW 5.8 mph - N/A   Overcast
8:53 AM 55.9 °F 53.1 °F 90% 30.08 in 10.0 mi WSW 3.5 mph - N/A   Overcast
9:53 AM 57.0 °F 53.1 °F 87% 30.09 in 10.0 mi SW 4.6 mph - N/A   Overcast
10:38 AM 57.2 °F 53.6 °F 88% 30.09 in 10.0 mi West 6.9 mph - N/A   Overcast
10:53 AM 57.9 °F 53.1 °F 84% 30.09 in 10.0 mi SW 4.6 mph - N/A   Overcast
11:53 AM 61.0 °F 54.0 °F 78% 30.10 in 10.0 mi SW 5.8 mph - N/A   Overcast
12:53 PM 64.9 °F 55.9 °F 73% 30.10 in 10.0 mi SSW 5.8 mph - N/A   Mostly Cloudy
1:06 PM 64.4 °F 55.4 °F 73% 30.10 in 10.0 mi Variable 5.8 mph - N/A   Scattered Clouds
1:53 PM 66.9 °F 57.0 °F 70% 30.09 in 10.0 mi SW 5.8 mph - N/A   Partly Cloudy
2:53 PM 70.0 °F 57.9 °F 65% 30.08 in 10.0 mi SSW 6.9 mph - N/A   Clear
3:53 PM 71.1 °F 57.9 °F 63% 30.07 in 10.0 mi WSW 9.2 mph - N/A   Clear
4:53 PM 73.9 °F 59.0 °F 59% 30.06 in 10.0 mi SW 9.2 mph - N/A   Clear
5:53 PM 73.0 °F 59.0 °F 61% 30.05 in 10.0 mi WSW 9.2 mph - N/A   Clear
6:53 PM 73.0 °F 59.0 °F 61% 30.05 in 10.0 mi WSW 9.2 mph - N/A   Clear
7:53 PM 72.0 °F 59.0 °F 64% 30.06 in 10.0 mi SW 6.9 mph - N/A   Clear
8:53 PM 68.0 °F 60.1 °F 76% 30.06 in 10.0 mi WSW 3.5 mph - N/A   Mostly Cloudy
9:53 PM 64.0 °F 59.0 °F 84% 30.07 in 10.0 mi WSW 5.8 mph - N/A   Clear
10:53 PM 61.0 °F 57.0 °F 87% 30.07 in 10.0 mi WSW 6.9 mph - N/A   Clear
11:53 PM 59.0 °F 55.9 °F 90% 30.08 in 10.0 mi WSW 3.5 mph - N/A   Clear